Back to catalog

FENGYUN 1C DEB

AlivePO
NORAD 35144·DEBRIS·🇨🇳 China

Launched May 10, 1999 from Taiyuan Satellite Launch Center

Loading…

Next Passes (next 24 hours)

TLE

FreshSource: Space-Track

Epoch: Sep 13, 2026, 19:57 UTC

1 35144U 99025DLY 26256.83159006  .00007500  00000-0  13844-2 0  9999
2 35144  98.7137  32.1625 0024225 232.0292 127.8722 14.65588138692351

Track FENGYUN 1C DEB in real time with AllMySat

Download on the App Store